METAR Formatted Surface Weather Observation
Issued by NWS

Home | Current Version | Previous Version | Text Only | Print | Product List | Glossary On
Versions: 1 2 3 4 5 6 7 8 9 10 11 12 13 14 15 16 17 18 19 20 21 22 23 24
000
SAUS45 KPSR 271657
MTRFHU
METAR KFHU 271656Z AUTO 11006KT 10SM CLR 18/M07 A3035 RMK AO2 SLP248
T01781067 $



USA.gov is the U.S. government's official web portal to all federal, state and local government web resources and services.